Hourly Data Report for August 01, 2021

MUSKOKA
ONTARIO
Current Station Operator: NAVCAN

44°58'29.000" N
79°18'12.000" W
281.90 m
6115529
71532
YQA

Download Data

Hourly Data (August 2021)
Hourly Data Report for August 1, 2021
TIME
LST
Temp Definition
°C
Dew Point Definition
°C
Rel Hum Definition
%
Precip. Amount Definition
mm

Wind Dir Definition
10's deg

Wind Spd Definition
km/h
Visibility Definition
km
Stn Press Definition
kPa
Hmdx Definition


Wind Chill Definition


Weather Definition


00:00 13.0 12.7 98 0.0 12 8 16.1 97.70     LegendNANA
01:00 13.1 12.8 98 0.2 12 11 11.3 97.65     Rain
02:00 13.1 13.0 99 0.0 13 5 12.9 97.62     LegendNANA
03:00 13.1 13.0 99 0.0 LegendMM 4 12.9 97.63     LegendNANA
04:00 13.2 13.1 99 0.2 LegendMM 4 4.8 97.64     Rain, Fog
05:00 13.2 13.1 99 0.0   0 16.1 97.65     LegendNANA
06:00 13.5 13.4 99 0.0 LegendMM 4 16.1 97.66     LegendNANA
07:00 14.0 13.9 99 0.0 36 5 16.1 97.71     LegendNANA
08:00 14.7 14.1 96 0.0 4 5 16.1 97.70     LegendNANA
09:00 15.3 14.3 93 0.0 LegendMM 4 16.1 97.72     LegendNANA
10:00 15.0 14.1 94 0.0 3 8 16.1 97.75     LegendNANA
11:00 15.5 14.0 91 0.0 5 5 16.1 97.80     LegendNANA
12:00 15.4 14.1 92 0.0 5 5 11.3 97.83     LegendNANA
13:00 15.4 14.1 92 0.0 LegendMM 4 16.1 97.86     LegendNANA
14:00 16.5 14.3 87 0.0 1 9 16.1 97.87     LegendNANA
15:00 17.7 13.7 77 0.0 36 9 16.1 97.89     LegendNANA
16:00 17.2 13.4 78 0.0 1 9 16.1 97.94     LegendNANA
17:00 16.8 12.8 77 0.0 2 8 16.1 97.97     LegendNANA
18:00 16.5 13.6 83 0.0 1 5 16.1 98.02     LegendNANA
19:00 16.2 14.9 92 0.2 35 4 16.1 98.03     LegendNANA
20:00 14.6 13.7 95 0.0 29 4 16.1 98.06     LegendNANA
21:00 12.7 12.6 99 0.0   0 16.1 98.13     LegendNANA
22:00 14.0 13.4 96 0.0 29 5 16.1 98.15     LegendNANA
23:00 11.1 11.0 99 0.0   0 8.1 98.16     Fog

Notes on Data Quality.

Legend

  • E = Estimated
  • M = Missing
  • NA = Not Available*
  • [empty] = Indicates an unobserved value
Date modified: